#timestamp,LO_Frequency,Hit,StdDev 
1652882415.3,286047017.9,N
1652882435.2,286047019.0,N
1652882455.9,286047021.4,N
1652882475.7,286047016.5,N
1652882495.6,286047016.7,N
1652882515.4,286047015.4,N
1652882535.2,286047018.6,N
1652882555.1,286047018.0,N
1652882556.0,286047018.0,N
1652882575.8,286047018.1,N
1652882595.7,286047015.5,N
1652882615.5,286047012.6,N
1652882635.3,286047013.9,N
1652882655.2,286047013.9,N
1652882705.9,286047003.2,E
1652882715.8,286047001.4,N
1652882735.7,286046998.7,P
1652882755.5,286046998.9,N
1652882775.3,286047001.4,N
1652882795.2,286047006.8,Y
1652882815.0,286047009.8,P
1652882815.9,286047009.8,N
1652882835.8,286047007.3,N
1652882855.6,286047008.1,N
1652882875.4,286047006.3,N
1652882895.3,286047002.9,N
1652882945.1,286047002.8,E
1652882955.1,286047000.4,N
1652882956.0,286047000.4,P
1652882975.8,286046999.1,P
1652882995.6,286046993.3,Y
1652883015.5,286046994.7,P
1652883035.3,286046992.8,N
1652883055.2,286046990.7,P
1652883075.9,286046989.2,Y
1652883095.7,286046995.5,P
1652883115.6,286047000.9,N
1652883135.4,286047001.9,N
1652883155.2,286047000.6,N
1652883175.1,286046999.2,N
1652883176.0,286046999.2,N
1652883195.8,286046994.9,N
1652883215.7,286046993.7,N
1652883235.5,286046996.0,N
1652883255.3,286046995.4,N
1652883275.2,286046997.5,N
1652883295.9,286046999.5,N
1652883315.7,286046998.3,N
1652883335.6,286047002.5,N
1652883355.4,286047003.7,N
1652883375.2,286047000.4,N
1652883395.1,286046999.7,N
1652883396.0,286046999.7,N
1652883415.8,286047002.5,N
1652883435.7,286047001.9,N
1652883455.5,286047004.3,N
1652883475.3,286047004.0,N
1652883495.2,286047001.7,N
1652883515.0,286047006.6,N
1652883515.9,286047006.6,N
1652883535.8,286047012.9,Y
1652883555.6,286047011.7,P
1652883575.4,286047010.3,N
1652883595.3,286047008.0,N
1652883615.1,286047009.1,N
1652883616.0,286047009.1,N
1652883635.8,286047006.5,N
1652883655.7,286047006.6,N
1652883675.5,286047011.1,Y
1652883695.4,286047012.0,P
1652883715.2,286047015.5,P
1652883735.0,286047011.4,P
1652883735.9,286047011.4,Y
1652883755.8,286046999.4,P
1652883775.6,286046997.6,N
1652883795.5,286046994.0,N
1652883815.3,286046997.0,N
1652883835.1,286047000.6,N
1652883855.9,286047004.2,N
1652883875.7,286047003.0,N
1652883895.5,286047010.1,N
1652883915.4,286047009.4,N
1652883935.2,286047006.6,N
1652883955.1,286047004.1,N
1652883956.0,286047004.1,N
1652883975.8,286047004.4,N
1652883995.6,286046999.3,N
1652884015.5,286046997.6,N
1652884035.3,286047001.1,N
1652884055.1,286046998.5,N
1652884075.9,286047000.8,N
1652884095.7,286047004.3,N
1652884115.6,286046998.7,N
1652884135.4,286046998.6,N
1652884155.2,286046997.8,N
1652884175.1,286046995.1,N
1652884176.0,286046995.1,N
1652884195.8,286046994.3,N
1652884215.6,286046991.2,N
1652884235.5,286046989.6,N
1652884255.3,286046988.9,N
1652884275.1,286046992.6,N
1652884295.9,286046997.0,N
1652884315.7,286047001.7,N
1652884335.6,286047004.5,N
1652884355.4,286047009.0,N
1652884375.2,286047007.8,N
1652884395.1,286047011.8,N
1652884396.0,286047011.8,N
1652884415.8,286047014.0,N
1652884435.6,286047004.5,N
1652884455.5,286047003.5,N
1652884475.3,286047001.7,N
1652884495.2,286047000.1,N
1652884515.9,286047002.4,N
1652884535.7,286047004.4,N
1652884555.6,286047002.5,N
1652884575.4,286047000.0,N
1652884595.2,286047000.2,N
1652884615.1,286047002.2,N
1652884635.4,286046997.6,N
1652884655.3,286046993.6,N
1652884675.1,286046992.0,N
1652884695.8,286046993.1,N
1652884715.7,286046991.9,N
1652884735.5,286046990.3,N
1652884755.4,286046990.4,N
1652884775.2,286046988.5,N
1652884795.1,286046989.4,N
1652884796.0,286046989.4,N
1652884815.8,286046988.5,N
1652884835.6,286046988.5,N
1652884855.5,286046991.5,N
1652884875.3,286046989.7,N
1652884895.1,286046988.7,N
1652884915.9,286046991.7,N
1652884935.7,286046994.1,N
1652884955.6,286046994.8,N
1652884975.4,286046990.1,N
1652884995.2,286046993.2,N
1652885015.1,286046993.1,N
1652885016.0,286046993.1,N
1652885035.8,286046996.2,N
1652885055.6,286046999.5,N
1652885075.5,286046997.6,N
1652885095.3,286046997.4,N
1652885115.2,286046994.9,N
1652885135.9,286046999.0,N
1652885155.7,286046999.8,N
1652885175.6,286047000.0,N
1652885195.4,286047000.4,N
1652885215.2,286047000.2,N
1652885235.1,286047001.7,N
1652885236.0,286047001.7,N
1652885255.8,286047000.2,N
1652885275.7,286047000.6,N
1652885295.5,286046996.7,N
1652885315.3,286046995.5,N
1652885335.2,286046995.8,N
1652885355.0,286046995.7,N
1652885355.9,286046995.7,N
1652885375.7,286046998.3,N
1652885395.6,286047005.5,N
1652885415.4,286047004.5,N
1652885435.3,286047006.1,N
1652885455.1,286047007.6,N
1652885456.0,286047007.6,N
1652885475.8,286047001.9,N
1652885495.7,286047005.9,N
1652885515.5,286047005.5,N
1652885535.3,286047006.7,N
1652885555.2,286047012.1,N
1652885575.0,286047008.0,N
1652885575.9,286047008.0,N
1652885595.8,286047005.3,N
1652885615.6,286047003.5,N
1652885635.4,286047003.9,N
1652885655.3,286047002.1,N
1652885675.1,286046999.7,N
1652885695.8,286047000.6,N
1652885715.7,286046999.7,N
1652885735.5,286047004.2,N
1652885755.4,286047003.5,N
1652885775.2,286047004.4,N
1652885795.0,286047003.2,N
1652885795.9,286047003.2,N
1652885815.8,286047005.3,N
1652885835.6,286047005.9,N
1652885855.4,286047007.3,N
1652885875.3,286047008.1,N
1652885895.1,286047013.8,Y
1652885915.9,286047007.7,P
1652885935.7,286047008.2,P
1652885955.5,286047007.8,P
1652885975.4,286047008.8,Y
1652885995.2,286046998.5,P
